Time,TemperatureF,DewpointF,PressureIn,WindDirection,WindDirectionDegrees,WindSpeedMPH,WindSpeedGustMPH,Humidity,HourlyPrecipIn,Conditions,Clouds,dailyrainin,SolarRadiationWatts/m^2,SoftwareType,DateUTC
2013-10-10 00:04:00,45.9,42.2,30.35,North,11,3.0,4.0,87,0.00,,,0.00,0,Wunderground v.1.15,2013-10-10 04:04:00,
2013-10-10 00:09:00,45.7,42.3,30.35,NNE,30,3.0,4.0,88,0.00,,,0.00,0,Wunderground v.1.15,2013-10-10 04:09:00,
2013-10-10 00:14:00,45.6,42.3,30.35,NNE,21,3.0,4.0,88,0.00,,,0.00,0,Wunderground v.1.15,2013-10-10 04:14:00,
2013-10-10 00:24:00,45.4,42.3,30.34,North,11,3.0,3.0,89,0.00,,,0.00,0,Wunderground v.1.15,2013-10-10 04:24:00,
2013-10-10 00:29:00,45.3,42.2,30.34,NNE,29,3.0,3.0,89,0.00,,,0.00,0,Wunderground v.1.15,2013-10-10 04:29:00,
2013-10-10 00:34:00,45.2,42.2,30.34,NNE,23,4.0,4.0,89,0.00,,,0.00,0,Wunderground v.1.15,2013-10-10 04:34:00,
2013-10-10 00:39:00,45.2,42.2,30.34,NNE,17,4.0,4.0,89,0.00,,,0.00,0,Wunderground v.1.15,2013-10-10 04:39:00,
2013-10-10 00:44:00,45.1,42.1,30.34,NNW,348,3.0,4.0,89,0.00,,,0.00,0,Wunderground v.1.15,2013-10-10 04:44:00,
2013-10-10 00:49:00,45.0,42.0,30.34,NNW,346,3.0,4.0,89,0.00,,,0.00,0,Wunderground v.1.15,2013-10-10 04:49:00,
2013-10-10 00:59:00,44.9,42.1,30.34,NNE,25,4.0,5.0,90,0.00,,,0.00,0,Wunderground v.1.15,2013-10-10 04:59:00,
2013-10-10 01:04:00,44.8,42.0,30.34,North,10,3.0,3.0,90,0.00,,,0.00,0,Wunderground v.1.15,2013-10-10 05:04:00,
2013-10-10 01:14:00,44.7,41.9,30.34,North,350,4.0,4.0,90,0.00,,,0.00,0,Wunderground v.1.15,2013-10-10 05:14:00,
2013-10-10 01:19:00,44.7,41.9,30.34,North,355,3.0,4.0,90,0.00,,,0.00,0,Wunderground v.1.15,2013-10-10 05:19:00,
2013-10-10 01:24:00,44.6,41.8,30.35,NNW,329,3.0,3.0,90,0.00,,,0.00,0,Wunderground v.1.15,2013-10-10 05:24:00,
2013-10-10 01:29:00,44.5,42.0,30.35,NNW,346,3.0,3.0,91,0.00,,,0.00,0,Wunderground v.1.15,2013-10-10 05:29:00,
2013-10-10 01:34:00,44.4,41.9,30.34,North,360,3.0,3.0,91,0.00,,,0.00,0,Wunderground v.1.15,2013-10-10 05:34:00,
2013-10-10 01:39:00,44.4,41.9,30.34,NNW,344,3.0,3.0,91,0.00,,,0.00,0,Wunderground v.1.15,2013-10-10 05:39:00,
2013-10-10 01:44:00,44.3,42.1,30.34,NNW,345,3.0,4.0,92,0.00,,,0.00,0,Wunderground v.1.15,2013-10-10 05:44:00,
2013-10-10 01:49:00,44.3,42.1,30.34,North,5,3.0,5.0,92,0.00,,,0.00,0,Wunderground v.1.15,2013-10-10 05:49:00,
2013-10-10 01:59:00,44.3,42.1,30.34,NNW,335,4.0,4.0,92,0.00,,,0.00,0,Wunderground v.1.15,2013-10-10 05:59:00,
2013-10-10 02:04:00,44.3,42.1,30.33,NW,325,4.0,4.0,92,0.00,,,0.00,0,Wunderground v.1.15,2013-10-10 06:04:00,
2013-10-10 02:09:00,44.2,42.0,30.33,NW,313,5.0,5.0,92,0.00,,,0.00,0,Wunderground v.1.15,2013-10-10 06:09:00,
2013-10-10 02:19:00,44.2,42.0,30.33,NNW,341,5.0,6.0,92,0.00,,,0.00,0,Wunderground v.1.15,2013-10-10 06:19:00,
2013-10-10 02:24:00,44.2,42.0,30.33,North,5,4.0,4.0,92,0.00,,,0.00,0,Wunderground v.1.15,2013-10-10 06:24:00,
2013-10-10 02:29:00,44.2,42.0,30.33,North,11,5.0,5.0,92,0.00,,,0.00,0,Wunderground v.1.15,2013-10-10 06:29:00,
2013-10-10 02:34:00,44.2,42.0,30.32,NNE,23,5.0,5.0,92,0.00,,,0.00,0,Wunderground v.1.15,2013-10-10 06:34:00,
2013-10-10 02:39:00,44.2,42.0,30.32,NNW,327,5.0,5.0,92,0.00,,,0.00,0,Wunderground v.1.15,2013-10-10 06:39:00,
2013-10-10 02:44:00,44.2,42.0,30.32,North,355,5.0,5.0,92,0.00,,,0.00,0,Wunderground v.1.15,2013-10-10 06:44:00,
2013-10-10 02:49:00,44.2,42.0,30.32,NNW,343,5.0,9.0,92,0.00,,,0.00,0,Wunderground v.1.15,2013-10-10 06:49:00,
2013-10-10 02:54:00,44.2,42.0,30.32,NNE,13,5.0,8.0,92,0.00,,,0.00,0,Wunderground v.1.15,2013-10-10 06:54:00,
2013-10-10 03:04:00,44.1,41.9,30.32,North,11,4.0,4.0,92,0.00,,,0.00,0,Wunderground v.1.15,2013-10-10 07:04:00,
2013-10-10 03:14:00,44.1,41.9,30.31,WNW,287,5.0,7.0,92,0.00,,,0.00,0,Wunderground v.1.15,2013-10-10 07:14:00,
2013-10-10 03:19:00,44.1,41.9,30.30,North,350,5.0,7.0,92,0.00,,,0.00,0,Wunderground v.1.15,2013-10-10 07:19:00,
2013-10-10 03:29:00,44.1,41.9,30.30,North,355,5.0,6.0,92,0.00,,,0.00,0,Wunderground v.1.15,2013-10-10 07:29:00,
2013-10-10 03:34:00,44.1,41.9,30.30,NNE,32,4.0,4.0,92,0.00,,,0.00,0,Wunderground v.1.15,2013-10-10 07:34:00,
2013-10-10 03:39:00,44.1,41.9,30.30,North,355,4.0,4.0,92,0.00,,,0.00,0,Wunderground v.1.15,2013-10-10 07:39:00,
2013-10-10 03:44:00,44.2,41.7,30.30,North,350,5.0,8.0,91,0.00,,,0.00,0,Wunderground v.1.15,2013-10-10 07:44:00,
2013-10-10 03:49:00,44.2,41.7,30.30,NNE,19,5.0,8.0,91,0.00,,,0.00,0,Wunderground v.1.15,2013-10-10 07:49:00,
2013-10-10 03:54:00,44.3,41.6,30.29,NE,35,5.0,6.0,90,0.00,,,0.00,0,Wunderground v.1.15,2013-10-10 07:54:00,
2013-10-10 04:04:00,44.4,41.4,30.30,ENE,59,5.0,5.0,89,0.00,,,0.00,0,Wunderground v.1.15,2013-10-10 08:04:00,
2013-10-10 04:09:00,44.5,41.5,30.30,NNE,33,4.0,5.0,89,0.00,,,0.00,0,Wunderground v.1.15,2013-10-10 08:09:00,
2013-10-10 04:19:00,44.5,41.2,30.30,NNW,335,2.0,3.0,88,0.00,,,0.00,0,Wunderground v.1.15,2013-10-10 08:19:00,
2013-10-10 04:24:00,44.4,41.1,30.30,NNW,346,2.0,3.0,88,0.00,,,0.00,0,Wunderground v.1.15,2013-10-10 08:24:00,
2013-10-10 04:34:00,44.3,41.3,30.30,NNE,26,2.0,3.0,89,0.00,,,0.00,0,Wunderground v.1.15,2013-10-10 08:34:00,
2013-10-10 04:39:00,44.2,41.2,30.31,North,349,3.0,4.0,89,0.00,,,0.00,0,Wunderground v.1.15,2013-10-10 08:39:00,
2013-10-10 04:44:00,44.2,41.2,30.30,North,5,3.0,3.0,89,0.00,,,0.00,0,Wunderground v.1.15,2013-10-10 08:44:00,
2013-10-10 04:49:00,44.2,41.2,30.30,NNE,15,3.0,5.0,89,0.00,,,0.00,0,Wunderground v.1.15,2013-10-10 08:49:00,
2013-10-10 04:59:00,44.1,41.1,30.30,NNW,334,3.0,4.0,89,0.00,,,0.00,0,Wunderground v.1.15,2013-10-10 08:59:00,
2013-10-10 05:04:00,44.1,41.1,30.30,NE,35,3.0,3.0,89,0.00,,,0.00,0,Wunderground v.1.15,2013-10-10 09:04:00,
2013-10-10 05:09:00,44.1,41.1,30.31,NNE,19,2.0,3.0,89,0.00,,,0.00,0,Wunderground v.1.15,2013-10-10 09:09:00,
2013-10-10 05:14:00,44.1,41.1,30.31,NNW,348,2.0,3.0,89,0.00,,,0.00,0,Wunderground v.1.15,2013-10-10 09:14:00,
2013-10-10 05:19:00,44.1,41.1,30.31,North,355,2.0,3.0,89,0.00,,,0.00,0,Wunderground v.1.15,2013-10-10 09:19:00,
2013-10-10 05:29:00,44.0,41.3,30.32,North,355,1.0,2.0,90,0.00,,,0.00,0,Wunderground v.1.15,2013-10-10 09:29:00,
2013-10-10 05:34:00,44.0,41.3,30.32,North,355,1.0,2.0,90,0.00,,,0.00,0,Wunderground v.1.15,2013-10-10 09:34:00,
2013-10-10 05:39:00,43.9,41.2,30.32,North,355,2.0,2.0,90,0.00,,,0.00,0,Wunderground v.1.15,2013-10-10 09:39:00,
2013-10-10 05:44:00,44.0,41.3,30.32,North,355,2.0,2.0,90,0.00,,,0.00,0,Wunderground v.1.15,2013-10-10 09:44:00,
2013-10-10 05:49:00,44.0,41.3,30.32,North,355,2.0,2.0,90,0.00,,,0.00,0,Wunderground v.1.15,2013-10-10 09:49:00,
2013-10-10 05:54:00,44.0,41.3,30.32,North,355,1.0,1.0,90,0.00,,,0.00,0,Wunderground v.1.15,2013-10-10 09:54:00,
2013-10-10 06:04:00,44.0,41.3,30.32,North,355,2.0,3.0,90,0.00,,,0.00,0,Wunderground v.1.15,2013-10-10 10:04:00,
2013-10-10 06:09:00,43.9,41.2,30.32,North,355,3.0,3.0,90,0.00,,,0.00,0,Wunderground v.1.15,2013-10-10 10:09:00,
2013-10-10 06:14:00,44.0,41.3,30.32,NNW,336,3.0,5.0,90,0.00,,,0.00,0,Wunderground v.1.15,2013-10-10 10:14:00,
2013-10-10 06:19:00,44.0,41.3,30.32,NNW,345,4.0,5.0,90,0.00,,,0.00,0,Wunderground v.1.15,2013-10-10 10:19:00,
2013-10-10 06:24:00,44.1,41.4,30.32,NNW,335,4.0,4.0,90,0.00,,,0.00,0,Wunderground v.1.15,2013-10-10 10:24:00,
2013-10-10 06:29:00,44.1,41.4,30.32,North,355,3.0,4.0,90,0.00,,,0.00,0,Wunderground v.1.15,2013-10-10 10:29:00,
2013-10-10 06:39:00,44.2,41.5,30.31,NNE,17,3.0,3.0,90,0.00,,,0.00,0,Wunderground v.1.15,2013-10-10 10:39:00,
2013-10-10 06:44:00,44.1,41.1,30.31,NNE,23,3.0,5.0,89,0.00,,,0.00,0,Wunderground v.1.15,2013-10-10 10:44:00,
2013-10-10 06:49:00,44.1,41.1,30.31,NNW,342,4.0,5.0,89,0.00,,,0.00,0,Wunderground v.1.15,2013-10-10 10:49:00,
2013-10-10 06:59:00,44.0,41.0,30.31,NNE,13,3.0,3.0,89,0.00,,,0.00,0,Wunderground v.1.15,2013-10-10 10:59:00,
2013-10-10 07:04:00,44.0,41.0,30.31,NNE,12,3.0,4.0,89,0.00,,,0.00,0,Wunderground v.1.15,2013-10-10 11:04:00,
2013-10-10 07:14:00,43.8,40.8,30.31,NNW,345,4.0,4.0,89,0.00,,,0.00,9,Wunderground v.1.15,2013-10-10 11:14:00,
2013-10-10 07:19:00,43.8,40.8,30.31,North,350,4.0,4.0,89,0.00,,,0.00,14,Wunderground v.1.15,2013-10-10 11:19:00,
2013-10-10 07:24:00,43.9,40.9,30.31,NNW,329,4.0,6.0,89,0.00,,,0.00,18,Wunderground v.1.15,2013-10-10 11:24:00,
2013-10-10 07:34:00,44.1,40.8,30.31,NW,314,4.0,7.0,88,0.00,,,0.00,26,Wunderground v.1.15,2013-10-10 11:34:00,
2013-10-10 07:39:00,44.2,40.9,30.31,NW,320,4.0,7.0,88,0.00,,,0.00,30,Wunderground v.1.15,2013-10-10 11:39:00,
2013-10-10 07:44:00,44.3,41.0,30.30,NNW,331,4.0,4.0,88,0.00,,,0.00,33,Wunderground v.1.15,2013-10-10 11:44:00,
2013-10-10 07:54:00,44.6,41.6,30.30,NNW,346,5.0,5.0,89,0.00,,,0.00,37,Wunderground v.1.15,2013-10-10 11:54:00,
2013-10-10 08:04:00,44.8,41.8,30.30,NNW,328,5.0,5.0,89,0.00,,,0.00,40,Wunderground v.1.15,2013-10-10 12:04:00,
2013-10-10 08:09:00,44.9,41.9,30.30,NNW,335,5.0,5.0,89,0.00,,,0.00,42,Wunderground v.1.15,2013-10-10 12:09:00,
2013-10-10 08:19:00,45.2,42.2,30.29,NNW,348,4.0,4.0,89,0.00,,,0.00,47,Wunderground v.1.15,2013-10-10 12:19:00,
2013-10-10 08:24:00,45.3,42.2,30.29,NNE,19,4.0,4.0,89,0.00,,,0.00,51,Wunderground v.1.15,2013-10-10 12:24:00,
2013-10-10 08:34:00,45.6,42.8,30.30,NNE,20,6.0,7.0,90,0.00,,,0.00,58,Wunderground v.1.15,2013-10-10 12:34:00,
2013-10-10 08:39:00,45.7,42.9,30.29,North,5,4.0,7.0,90,0.00,,,0.00,63,Wunderground v.1.15,2013-10-10 12:39:00,
2013-10-10 08:49:00,46.0,43.2,30.30,NE,51,1.0,3.0,90,0.00,,,0.00,74,Wunderground v.1.15,2013-10-10 12:49:00,
2013-10-10 08:54:00,46.1,43.6,30.30,NW,325,1.0,1.0,91,0.00,,,0.00,77,Wunderground v.1.15,2013-10-10 12:54:00,
2013-10-10 08:59:00,46.3,43.8,30.30,NNW,327,2.0,2.0,91,0.00,,,0.00,83,Wunderground v.1.15,2013-10-10 12:59:00,
2013-10-10 09:09:00,46.8,44.3,30.30,North,9,3.0,7.0,91,0.00,,,0.00,90,Wunderground v.1.15,2013-10-10 13:09:00,
2013-10-10 09:14:00,47.0,44.5,30.30,North,360,4.0,4.0,91,0.00,,,0.00,95,Wunderground v.1.15,2013-10-10 13:14:00,
2013-10-10 09:19:00,47.2,44.7,30.30,NE,39,3.0,4.0,91,0.00,,,0.00,97,Wunderground v.1.15,2013-10-10 13:19:00,
2013-10-10 09:24:00,47.4,44.9,30.31,NE,51,3.0,3.0,91,0.00,,,0.00,100,Wunderground v.1.15,2013-10-10 13:24:00,
2013-10-10 09:34:00,47.8,45.3,30.31,NNE,32,2.0,2.0,91,0.00,,,0.00,114,Wunderground v.1.15,2013-10-10 13:34:00,
2013-10-10 09:39:00,47.9,45.4,30.31,NE,48,2.0,2.0,91,0.00,,,0.00,113,Wunderground v.1.15,2013-10-10 13:39:00,
2013-10-10 09:44:00,48.1,45.3,30.31,NE,54,3.0,5.0,90,0.00,,,0.00,107,Wunderground v.1.15,2013-10-10 13:44:00,
2013-10-10 09:54:00,48.2,45.4,30.31,East,89,3.0,3.0,90,0.00,,,0.00,114,Wunderground v.1.15,2013-10-10 13:54:00,
2013-10-10 09:59:00,48.3,45.2,30.31,SE,142,3.0,3.0,89,0.00,,,0.00,118,Wunderground v.1.15,2013-10-10 13:59:00,
2013-10-10 10:04:00,48.3,45.2,30.31,NNW,328,3.0,3.0,89,0.00,,,0.00,123,Wunderground v.1.15,2013-10-10 14:04:00,
2013-10-10 10:09:00,48.4,45.3,30.30,NNE,20,2.0,3.0,89,0.00,,,0.00,128,Wunderground v.1.15,2013-10-10 14:09:00,
2013-10-10 10:14:00,48.6,45.8,30.30,NNE,19,2.0,2.0,90,0.00,,,0.00,135,Wunderground v.1.15,2013-10-10 14:14:00,
2013-10-10 10:24:00,48.7,45.9,30.30,NE,49,3.0,5.0,90,0.00,,,0.00,149,Wunderground v.1.15,2013-10-10 14:24:00,
2013-10-10 10:29:00,48.8,46.0,30.30,North,360,2.0,5.0,90,0.00,,,0.00,162,Wunderground v.1.15,2013-10-10 14:29:00,
2013-10-10 10:34:00,49.0,45.9,30.30,ENE,59,3.0,3.0,89,0.00,,,0.00,169,Wunderground v.1.15,2013-10-10 14:34:00,
2013-10-10 10:39:00,49.2,46.1,30.30,NNE,23,3.0,5.0,89,0.00,,,0.00,174,Wunderground v.1.15,2013-10-10 14:39:00,
2013-10-10 10:44:00,49.4,46.3,30.29,NE,53,4.0,4.0,89,0.00,,,0.00,181,Wunderground v.1.15,2013-10-10 14:44:00,
2013-10-10 10:49:00,49.6,46.5,30.29,NNW,340,4.0,4.0,89,0.00,,,0.00,179,Wunderground v.1.15,2013-10-10 14:49:00,
2013-10-10 10:59:00,50.0,47.2,30.28,NE,35,4.0,5.0,90,0.00,,,0.00,171,Wunderground v.1.15,2013-10-10 14:59:00,
2013-10-10 11:09:00,50.3,47.2,30.28,ENE,69,4.0,5.0,89,0.00,,,0.00,167,Wunderground v.1.15,2013-10-10 15:09:00,
2013-10-10 11:14:00,50.4,47.3,30.28,North,360,3.0,3.0,89,0.00,,,0.00,165,Wunderground v.1.15,2013-10-10 15:14:00,
2013-10-10 11:19:00,50.6,47.5,30.28,NNE,18,4.0,6.0,89,0.00,,,0.00,167,Wunderground v.1.15,2013-10-10 15:19:00,
2013-10-10 11:24:00,50.8,47.7,30.27,North,355,5.0,6.0,89,0.00,,,0.00,167,Wunderground v.1.15,2013-10-10 15:24:00,
2013-10-10 11:34:00,51.1,48.3,30.28,North,355,4.0,5.0,90,0.00,,,0.00,155,Wunderground v.1.15,2013-10-10 15:34:00,
2013-10-10 11:44:00,51.4,48.3,30.28,NNE,28,3.0,3.0,89,0.00,,,0.00,153,Wunderground v.1.15,2013-10-10 15:44:00,
2013-10-10 11:49:00,51.6,48.5,30.28,NNW,331,3.0,3.0,89,0.00,,,0.00,156,Wunderground v.1.15,2013-10-10 15:49:00,
2013-10-10 11:59:00,51.9,48.8,30.28,NNE,32,2.0,3.0,89,0.00,,,0.00,183,Wunderground v.1.15,2013-10-10 15:59:00,
2013-10-10 12:04:00,52.2,49.4,30.28,NE,55,2.0,5.0,90,0.00,,,0.00,192,Wunderground v.1.15,2013-10-10 16:04:00,
2013-10-10 12:09:00,52.4,49.3,30.28,NW,326,2.0,5.0,89,0.00,,,0.00,197,Wunderground v.1.15,2013-10-10 16:09:00,
2013-10-10 12:14:00,52.7,49.2,30.28,East,89,3.0,3.0,88,0.00,,,0.00,195,Wunderground v.1.15,2013-10-10 16:14:00,
2013-10-10 12:24:00,53.0,49.5,30.27,North,351,3.0,3.0,88,0.00,,,0.00,169,Wunderground v.1.15,2013-10-10 16:24:00,
2013-10-10 12:29:00,53.2,49.7,30.27,NNW,346,2.0,3.0,88,0.00,,,0.00,153,Wunderground v.1.15,2013-10-10 16:29:00,
2013-10-10 12:39:00,53.4,49.9,30.26,North,355,3.0,6.0,88,0.00,,,0.00,160,Wunderground v.1.15,2013-10-10 16:39:00,
2013-10-10 12:44:00,53.5,50.0,30.26,NNE,12,3.0,3.0,88,0.00,,,0.00,169,Wunderground v.1.15,2013-10-10 16:44:00,
2013-10-10 12:54:00,53.8,50.0,30.26,ENE,64,2.0,2.0,87,0.00,,,0.00,199,Wunderground v.1.15,2013-10-10 16:54:00,
2013-10-10 12:59:00,53.9,50.1,30.26,NNE,32,3.0,3.0,87,0.00,,,0.00,199,Wunderground v.1.15,2013-10-10 16:59:00,
2013-10-10 13:04:00,54.0,50.2,30.26,NE,35,3.0,3.0,87,0.00,,,0.00,202,Wunderground v.1.15,2013-10-10 17:04:00,
2013-10-10 13:09:00,54.2,50.4,30.26,NNW,338,2.0,3.0,87,0.00,,,0.00,171,Wunderground v.1.15,2013-10-10 17:09:00,
2013-10-10 13:19:00,54.6,50.8,30.26,NNE,13,2.0,6.0,87,0.00,,,0.00,204,Wunderground v.1.15,2013-10-10 17:19:00,
2013-10-10 13:24:00,54.7,50.6,30.26,NE,41,4.0,4.0,86,0.00,,,0.00,207,Wunderground v.1.15,2013-10-10 17:24:00,
2013-10-10 13:34:00,54.8,50.7,30.26,SSE,148,3.0,3.0,86,0.00,,,0.00,207,Wunderground v.1.15,2013-10-10 17:34:00,
2013-10-10 13:39:00,54.9,50.8,30.25,NNW,338,4.0,5.0,86,0.00,,,0.00,211,Wunderground v.1.15,2013-10-10 17:39:00,
2013-10-10 13:44:00,55.0,50.9,30.25,NNE,23,4.0,4.0,86,0.00,,,0.00,192,Wunderground v.1.15,2013-10-10 17:44:00,
2013-10-10 13:49:00,55.0,50.6,30.25,NNW,348,4.0,8.0,85,0.00,,,0.00,158,Wunderground v.1.15,2013-10-10 17:49:00,
2013-10-10 13:54:00,55.0,50.9,30.25,NW,325,4.0,4.0,86,0.00,,,0.00,162,Wunderground v.1.15,2013-10-10 17:54:00,
2013-10-10 13:59:00,55.0,50.9,30.25,NNW,331,4.0,5.0,86,0.00,,,0.00,174,Wunderground v.1.15,2013-10-10 17:59:00,
2013-10-10 14:04:00,55.1,51.0,30.24,ENE,69,4.0,4.0,86,0.00,,,0.00,176,Wunderground v.1.15,2013-10-10 18:04:00,
2013-10-10 14:14:00,55.3,51.2,30.24,ESE,109,4.0,4.0,86,0.00,,,0.00,160,Wunderground v.1.15,2013-10-10 18:14:00,
2013-10-10 14:19:00,55.4,51.3,30.24,NNE,28,3.0,5.0,86,0.00,,,0.00,176,Wunderground v.1.15,2013-10-10 18:19:00,
2013-10-10 14:29:00,55.5,51.1,30.24,NE,38,5.0,5.0,85,0.00,,,0.00,183,Wunderground v.1.15,2013-10-10 18:29:00,
2013-10-10 14:34:00,55.6,51.2,30.24,ENE,67,4.0,4.0,85,0.00,,,0.00,183,Wunderground v.1.15,2013-10-10 18:34:00,
2013-10-10 14:39:00,55.8,51.4,30.24,North,355,3.0,4.0,85,0.00,,,0.00,179,Wunderground v.1.15,2013-10-10 18:39:00,
2013-10-10 14:44:00,56.0,51.6,30.24,NE,50,2.0,5.0,85,0.00,,,0.00,171,Wunderground v.1.15,2013-10-10 18:44:00,
2013-10-10 14:49:00,56.0,51.2,30.23,NE,35,3.0,5.0,84,0.00,,,0.00,167,Wunderground v.1.15,2013-10-10 18:49:00,
2013-10-10 14:54:00,56.2,51.7,30.23,NE,49,3.0,3.0,85,0.00,,,0.00,167,Wunderground v.1.15,2013-10-10 18:54:00,
2013-10-10 15:04:00,56.3,51.8,30.23,NE,55,3.0,3.0,85,0.00,,,0.00,167,Wunderground v.1.15,2013-10-10 19:04:00,
2013-10-10 15:09:00,56.4,51.6,30.23,ENE,74,2.0,3.0,84,0.00,,,0.00,162,Wunderground v.1.15,2013-10-10 19:09:00,
2013-10-10 15:19:00,56.4,51.6,30.23,North,5,2.0,3.0,84,0.00,,,0.00,141,Wunderground v.1.15,2013-10-10 19:19:00,
2013-10-10 15:24:00,56.5,51.7,30.23,SE,128,2.0,2.0,84,0.00,,,0.00,132,Wunderground v.1.15,2013-10-10 19:24:00,
2013-10-10 15:29:00,56.4,51.6,30.23,ENE,60,1.0,2.0,84,0.00,,,0.00,134,Wunderground v.1.15,2013-10-10 19:29:00,
2013-10-10 15:39:00,56.5,51.4,30.23,East,97,1.0,1.0,83,0.00,,,0.00,151,Wunderground v.1.15,2013-10-10 19:39:00,
2013-10-10 15:44:00,56.6,52.1,30.22,NNE,13,1.0,1.0,85,0.00,,,0.00,178,Wunderground v.1.15,2013-10-10 19:44:00,
2013-10-10 15:49:00,56.7,51.9,30.22,ENE,71,2.0,3.0,84,0.00,,,0.00,185,Wunderground v.1.15,2013-10-10 19:49:00,
2013-10-10 15:54:00,56.8,52.0,30.22,NE,35,3.0,3.0,84,0.00,,,0.00,185,Wunderground v.1.15,2013-10-10 19:54:00,
2013-10-10 16:04:00,56.8,52.0,30.21,NNW,337,3.0,3.0,84,0.00,,,0.00,169,Wunderground v.1.15,2013-10-10 20:04:00,
2013-10-10 16:09:00,56.9,51.8,30.21,ESE,117,3.0,3.0,83,0.00,,,0.00,160,Wunderground v.1.15,2013-10-10 20:09:00,
2013-10-10 16:19:00,56.8,51.7,30.21,NNW,336,3.0,3.0,83,0.00,,,0.00,111,Wunderground v.1.15,2013-10-10 20:19:00,
2013-10-10 16:24:00,56.7,51.6,30.21,NNE,22,2.0,4.0,83,0.00,,,0.00,90,Wunderground v.1.15,2013-10-10 20:24:00,
2013-10-10 16:29:00,56.6,51.5,30.21,ENE,60,3.0,4.0,83,0.00,,,0.00,77,Wunderground v.1.15,2013-10-10 20:29:00,
2013-10-10 16:39:00,56.3,51.5,30.21,NE,50,3.0,3.0,84,0.00,,,0.00,83,Wunderground v.1.15,2013-10-10 20:39:00,
2013-10-10 16:44:00,56.1,51.0,30.21,North,355,3.0,3.0,83,0.00,,,0.00,79,Wunderground v.1.15,2013-10-10 20:44:00,
2013-10-10 16:49:00,56.0,51.2,30.21,NNE,14,2.0,3.0,84,0.00,,,0.00,70,Wunderground v.1.15,2013-10-10 20:49:00,
2013-10-10 16:59:00,55.8,51.0,30.20,North,360,2.0,5.0,84,0.00,,,0.00,70,Wunderground v.1.15,2013-10-10 20:59:00,
2013-10-10 17:09:00,55.5,50.7,30.20,NE,42,4.0,4.0,84,0.00,,,0.00,65,Wunderground v.1.15,2013-10-10 21:09:00,
2013-10-10 17:19:00,55.2,50.4,30.20,North,5,3.0,6.0,84,0.00,,,0.00,37,Wunderground v.1.15,2013-10-10 21:19:00,
2013-10-10 17:24:00,54.9,49.8,30.20,NNW,346,5.0,5.0,83,0.00,,,0.00,23,Wunderground v.1.15,2013-10-10 21:24:00,
2013-10-10 17:29:00,54.8,49.7,30.20,North,355,5.0,5.0,83,0.00,,,0.00,16,Wunderground v.1.15,2013-10-10 21:29:00,
2013-10-10 17:39:00,54.4,49.7,30.19,NNE,17,4.0,4.0,84,0.00,,,0.00,14,Wunderground v.1.15,2013-10-10 21:39:00,
2013-10-10 17:44:00,54.2,49.1,30.19,NE,47,4.0,4.0,83,0.00,,,0.00,12,Wunderground v.1.15,2013-10-10 21:44:00,
2013-10-10 17:49:00,54.0,49.0,30.19,NE,36,4.0,4.0,83,0.00,,,0.00,11,Wunderground v.1.15,2013-10-10 21:49:00,
2013-10-10 17:59:00,53.7,48.7,30.20,North,5,4.0,4.0,83,0.00,,,0.00,7,Wunderground v.1.15,2013-10-10 21:59:00,
2013-10-10 18:09:00,53.4,48.4,30.20,North,355,3.0,4.0,83,0.00,,,0.00,5,Wunderground v.1.15,2013-10-10 22:09:00,
2013-10-10 18:14:00,53.3,48.3,30.20,NNE,20,3.0,3.0,83,0.00,,,0.00,0,Wunderground v.1.15,2013-10-10 22:14:00,
2013-10-10 18:19:00,53.2,48.5,30.20,North,9,2.0,3.0,84,0.00,,,0.00,0,Wunderground v.1.15,2013-10-10 22:19:00,
2013-10-10 18:29:00,53.0,48.3,30.20,North,355,3.0,4.0,84,0.00,,,0.00,0,Wunderground v.1.15,2013-10-10 22:29:00,
2013-10-10 18:39:00,52.8,48.4,30.20,North,5,3.0,3.0,85,0.00,,,0.00,0,Wunderground v.1.15,2013-10-10 22:39:00,
2013-10-10 18:44:00,52.7,48.3,30.20,NE,40,4.0,4.0,85,0.00,,,0.00,0,Wunderground v.1.15,2013-10-10 22:44:00,
2013-10-10 18:54:00,52.6,48.2,30.20,NNE,17,4.0,7.0,85,0.00,,,0.00,0,Wunderground v.1.15,2013-10-10 22:54:00,
2013-10-10 19:04:00,52.4,48.0,30.21,NNE,12,3.0,3.0,85,0.00,,,0.00,0,Wunderground v.1.15,2013-10-10 23:04:00,
2013-10-10 19:09:00,52.4,47.7,30.21,NE,37,3.0,3.0,84,0.00,,,0.00,0,Wunderground v.1.15,2013-10-10 23:09:00,
2013-10-10 19:14:00,52.3,47.6,30.21,North,355,3.0,3.0,84,0.00,,,0.00,0,Wunderground v.1.15,2013-10-10 23:14:00,
2013-10-10 19:19:00,52.2,47.8,30.21,NNW,346,3.0,3.0,85,0.00,,,0.00,0,Wunderground v.1.15,2013-10-10 23:19:00,
2013-10-10 19:24:00,52.1,47.7,30.21,North,5,3.0,3.0,85,0.00,,,0.00,0,Wunderground v.1.15,2013-10-10 23:24:00,
2013-10-10 19:34:00,52.0,47.3,30.20,North,351,5.0,5.0,84,0.00,,,0.00,0,Wunderground v.1.15,2013-10-10 23:34:00,
2013-10-10 19:44:00,51.8,47.4,30.20,NNE,16,4.0,4.0,85,0.00,,,0.00,0,Wunderground v.1.15,2013-10-10 23:44:00,
2013-10-10 19:54:00,51.7,47.0,30.20,NNW,348,5.0,7.0,84,0.00,,,0.00,0,Wunderground v.1.15,2013-10-10 23:54:00,
2013-10-10 19:59:00,51.6,46.9,30.19,North,11,5.0,10.0,84,0.00,,,0.00,0,Wunderground v.1.15,2013-10-10 23:59:00,
2013-10-10 20:04:00,51.6,46.9,30.19,North,350,6.0,9.0,84,0.00,,,0.00,0,Wunderground v.1.15,2013-10-11 00:04:00,
2013-10-10 20:09:00,51.6,46.9,30.19,NNW,338,6.0,9.0,84,0.00,,,0.00,0,Wunderground v.1.15,2013-10-11 00:09:00,
2013-10-10 20:19:00,51.6,46.9,30.19,North,355,6.0,6.0,84,0.00,,,0.00,0,Wunderground v.1.15,2013-10-11 00:19:00,
2013-10-10 20:24:00,51.7,47.0,30.20,NE,38,6.0,7.0,84,0.00,,,0.00,0,Wunderground v.1.15,2013-10-11 00:24:00,
2013-10-10 20:34:00,51.6,47.2,30.20,South,191,4.0,4.0,85,0.00,,,0.00,0,Wunderground v.1.15,2013-10-11 00:34:00,
2013-10-10 20:39:00,51.7,47.3,30.20,NNW,336,4.0,4.0,85,0.00,,,0.00,0,Wunderground v.1.15,2013-10-11 00:39:00,
2013-10-10 20:44:00,51.7,47.3,30.20,NNE,17,4.0,4.0,85,0.00,,,0.00,0,Wunderground v.1.15,2013-10-11 00:44:00,
2013-10-10 20:49:00,51.7,47.3,30.20,East,100,4.0,5.0,85,0.00,,,0.00,0,Wunderground v.1.15,2013-10-11 00:49:00,
2013-10-10 20:59:00,51.6,47.5,30.20,NNE,32,3.0,5.0,86,0.00,,,0.00,0,Wunderground v.1.15,2013-10-11 00:59:00,
2013-10-10 21:09:00,51.5,47.5,30.20,NNW,329,4.0,4.0,86,0.00,,,0.00,0,Wunderground v.1.15,2013-10-11 01:09:00,
2013-10-10 21:14:00,51.5,47.5,30.19,North,355,4.0,5.0,86,0.00,,,0.00,0,Wunderground v.1.15,2013-10-11 01:14:00,
2013-10-10 21:24:00,51.4,47.7,30.19,North,355,4.0,4.0,87,0.00,,,0.00,0,Wunderground v.1.15,2013-10-11 01:24:00,
2013-10-10 21:34:00,51.4,47.7,30.19,NNW,342,2.0,2.0,87,0.00,,,0.00,0,Wunderground v.1.15,2013-10-11 01:34:00,
2013-10-10 21:39:00,51.3,47.6,30.20,NNW,329,2.0,4.0,87,0.00,,,0.00,0,Wunderground v.1.15,2013-10-11 01:39:00,
2013-10-10 21:44:00,51.3,47.9,30.20,NNE,23,4.0,4.0,88,0.00,,,0.00,0,Wunderground v.1.15,2013-10-11 01:44:00,
2013-10-10 21:49:00,51.2,47.8,30.19,NNE,16,4.0,4.0,88,0.00,,,0.00,0,Wunderground v.1.15,2013-10-11 01:49:00,
2013-10-10 21:59:00,51.2,47.8,30.20,NE,52,4.0,4.0,88,0.00,,,0.00,0,Wunderground v.1.15,2013-10-11 01:59:00,
2013-10-10 22:04:00,51.1,47.7,30.20,NNE,26,3.0,3.0,88,0.00,,,0.00,0,Wunderground v.1.15,2013-10-11 02:04:00,
2013-10-10 22:09:00,51.0,47.9,30.19,NNW,337,4.0,4.0,89,0.00,,,0.00,0,Wunderground v.1.15,2013-10-11 02:09:00,
2013-10-10 22:19:00,50.9,47.8,30.19,North,5,5.0,6.0,89,0.00,,,0.00,0,Wunderground v.1.15,2013-10-11 02:19:00,
2013-10-10 22:24:00,50.9,48.1,30.19,NE,38,5.0,5.0,90,0.00,,,0.00,0,Wunderground v.1.15,2013-10-11 02:24:00,
2013-10-10 22:34:00,50.9,48.1,30.19,NE,39,4.0,5.0,90,0.00,,,0.00,0,Wunderground v.1.15,2013-10-11 02:34:00,
2013-10-10 22:39:00,50.9,48.1,30.19,North,9,4.0,5.0,90,0.00,,,0.00,0,Wunderground v.1.15,2013-10-11 02:39:00,
2013-10-10 22:49:00,51.0,48.2,30.19,North,360,4.0,4.0,90,0.00,,,0.00,0,Wunderground v.1.15,2013-10-11 02:49:00,
2013-10-10 22:54:00,51.0,48.2,30.19,NE,40,4.0,7.0,90,0.00,,,0.00,0,Wunderground v.1.15,2013-10-11 02:54:00,
2013-10-10 23:04:00,51.0,48.2,30.19,NNE,30,4.0,4.0,90,0.00,,,0.00,0,Wunderground v.1.15,2013-10-11 03:04:00,
2013-10-10 23:14:00,51.0,48.5,30.18,North,355,5.0,5.0,91,0.00,,,0.00,0,Wunderground v.1.15,2013-10-11 03:14:00,
2013-10-10 23:24:00,50.9,48.4,30.18,NNE,12,4.0,4.0,91,0.00,,,0.00,0,Wunderground v.1.15,2013-10-11 03:24:00,
2013-10-10 23:29:00,50.9,48.4,30.18,North,9,4.0,4.0,91,0.00,,,0.00,0,Wunderground v.1.15,2013-10-11 03:29:00,
2013-10-10 23:39:00,50.9,48.4,30.18,NNE,19,4.0,5.0,91,0.00,,,0.00,0,Wunderground v.1.15,2013-10-11 03:39:00,
2013-10-10 23:44:00,50.8,48.3,30.17,North,360,4.0,5.0,91,0.00,,,0.00,0,Wunderground v.1.15,2013-10-11 03:44:00,
2013-10-10 23:49:00,50.8,48.3,30.17,North,355,4.0,6.0,91,0.00,,,0.00,0,Wunderground v.1.15,2013-10-11 03:49:00,
2013-10-10 23:59:00,50.8,48.6,30.16,NW,326,4.0,5.0,92,0.00,,,0.00,0,Wunderground v.1.15,2013-10-11 03:59:00,